Columbia, MO

12:39 AM CDT on April 27, 2018 (GMT -0500)
Columbia Regional

Weather History for KCOU - August, 2013

Change the Weather History Date:

Tuesday, August 6, 2013

  Actual Average Record
Temperature  
Mean Temperature 79 °F 77 °F  
Max Temperature 87 °F 88 °F 107 °F (1934)
Min Temperature 70 °F 67 °F 49 °F (1994)
Degree Days  
Heating Degree Days 0 0  
Month to date heating degree days 0 0  
Since 1 June heating degree days 6 11  
Since 1 July heating degree days 0 0  
Cooling Degree Days 14 12  
Month to date cooling degree days 60 72  
Year to date cooling degree days 783 805  
Since 1 June cooling degree days 649 702  
Growing Degree Days 28 (Base 50)    
Moisture  
Dew Point 71 °F    
Average Humidity 83    
Maximum Humidity 100    
Minimum Humidity 65    
Precipitation  
Precipitation 0.46 in 0.13 in 2.50 in (1995)
Month to date precipitation 0.93 0.78  
Year to date precipitation 32.14 26.17  
Snow  
Snow 0.00 in 0.00 in 0.00 in (2015)
Month to date snowfall 0.0 0.0  
Since 1 June snowfall 0.0 0.0  
Since 1 July snowfall 0.0 0.0  
Snow Depth 0.00 in    
Sea Level Pressure  
Sea Level Pressure 29.87 in    
Wind  
Wind Speed 8 mph (South)    
Max Wind Speed 33 mph    
Max Gust Speed 43 mph    
Visibility 7 miles    
Events Fog , Rain , Thunderstorm    
T = Trace of Precipitation, MM = Missing Value Source: NWS Daily Summary

Daily Weather History Graph

Daily Weather History Graph

Search for Another Location

Airport or City:

Astronomy

Aug. 06, 2013 Rise Set
Actual Time 6:14 AM CDT 8:14 PM CDT
Civil Twilight 5:45 AM CDT 8:43 PM CDT
Nautical Twilight 5:09 AM CDT 9:18 PM CDT
Astronomical Twilight 4:31 AM CDT 9:56 PM CDT
Moon 6:05 AM CDT (8/6) 7:50 PM CDT (8/6)
Length of Visible Light 14h 57m
Length of Day
13h 59m
Waning Crescent, 0% of the Moon is Illuminated
Aug 6
Waning Crescent
Aug 6
New
Aug 14
First Quarter
Aug 20
Full
Aug 28
Last Quarter

Hourly Weather History & Observations

Time (CDT) Temp. Heat Index Dew Point Humidity Pressure Visibility Wind Dir Wind Speed Gust Speed Precip Events Conditions
12:54 AM 71.1 °F - 70.0 °F 96% 29.89 in 8.0 mi East 6.9 mph - N/A   Clear
1:21 AM 71.1 °F - 69.1 °F 93% 29.89 in 7.0 mi East 6.9 mph - N/A   Partly Cloudy
1:54 AM 71.1 °F - 69.1 °F 93% 29.84 in 5.0 mi East 4.6 mph - N/A   Partly Cloudy
2:28 AM 70.0 °F - 69.1 °F 97% 29.86 in 5.0 mi ESE 6.9 mph - N/A   Mostly Cloudy
2:52 AM 71.6 °F - 69.8 °F 94% 29.87 in 1.8 mi ESE 6.9 mph - N/A   Overcast
2:54 AM 71.1 °F - 69.1 °F 93% 29.84 in 1.2 mi ESE 5.8 mph - N/A   Overcast
3:03 AM 71.1 °F - 70.0 °F 96% 29.86 in 0.5 mi SE 6.9 mph - N/A Fog Fog
3:16 AM 71.1 °F - 70.0 °F 96% 29.85 in 0.2 mi SE 6.9 mph - N/A Fog Fog
3:52 AM 71.6 °F - 69.8 °F 94% 29.85 in 0.5 mi SE 6.9 mph - N/A Fog Fog
3:54 AM 71.1 °F - 70.0 °F 96% 29.83 in 0.5 mi SE 6.9 mph - N/A Fog Fog
4:22 AM 72.0 °F - 71.1 °F 97% 29.86 in 1.5 mi SE 6.9 mph - N/A   Overcast
4:31 AM 72.0 °F - 71.1 °F 97% 29.87 in 2.5 mi SE 9.2 mph - N/A   Overcast
4:38 AM 72.0 °F - 71.1 °F 97% 29.87 in 3.0 mi SSE 10.4 mph - N/A   Overcast
4:54 AM 72.0 °F - 71.1 °F 97% 29.84 in 4.0 mi SE 9.2 mph - N/A   Overcast
5:27 AM 73.0 °F - 72.0 °F 96% 29.90 in 7.0 mi South 15.0 mph 21.9 mph N/A   Overcast
5:49 AM 73.4 °F - 68.0 °F 83% 29.92 in 10.0 mi WSW 29.9 mph 39.1 mph N/A   Overcast
5:54 AM 72.0 °F - 66.9 °F 84% 29.89 in 10.0 mi WSW 29.9 mph 42.6 mph 0.00 in Rain Light Rain
6:05 AM 71.1 °F - 68.0 °F 90% 29.93 in 10.0 mi West 18.4 mph 36.8 mph 0.00 in Rain , Thunderstorm Light Rain
6:23 AM 71.1 °F - 68.0 °F 90% 29.94 in 3.0 mi NW 12.7 mph - 0.03 in Rain , Thunderstorm Heavy Thunderstorms and Rain
6:29 AM 70.0 °F - 69.1 °F 97% 29.93 in 1.8 mi NW 10.4 mph - 0.11 in Rain , Thunderstorm Heavy Thunderstorms and Rain
6:42 AM 70.0 °F - 69.1 °F 97% 29.92 in 2.5 mi West 4.6 mph - 0.33 in Rain , Thunderstorm Heavy Thunderstorms and Rain
6:48 AM 69.8 °F - 69.8 °F 100% 29.92 in 3.0 mi SW 8.1 mph - 0.37 in Rain Heavy Rain
6:54 AM 70.0 °F - 69.1 °F 97% 29.90 in 5.0 mi SW 9.2 mph - 0.39 in Rain Rain
7:36 AM 71.1 °F - 69.1 °F 93% 29.92 in 5.0 mi SSW 9.2 mph - 0.06 in Rain Rain
7:54 AM 71.1 °F - 69.1 °F 93% 29.90 in 10.0 mi SW 9.2 mph - 0.07 in Rain Light Rain
8:54 AM 72.0 °F - 70.0 °F 93% 29.87 in 10.0 mi South 8.1 mph - 0.00 in   Clear
9:54 AM 73.0 °F - 70.0 °F 90% 29.88 in 10.0 mi SSE 5.8 mph - N/A   Partly Cloudy
10:54 AM 75.9 °F - 71.1 °F 85% 29.89 in 10.0 mi SSW 10.4 mph - N/A   Partly Cloudy
11:54 AM 77.0 °F - 72.0 °F 84% 29.90 in 10.0 mi South 8.1 mph - N/A   Scattered Clouds
12:54 PM 80.1 °F 83.8 °F 72.0 °F 76% 29.88 in 10.0 mi SSW 6.9 mph - N/A   Clear
1:54 PM 82.9 °F 87.5 °F 71.1 °F 67% 29.87 in 10.0 mi South 9.2 mph - N/A   Mostly Cloudy
2:05 PM 82.9 °F 87.5 °F 71.1 °F 67% 29.90 in 10.0 mi South 4.6 mph - N/A   Scattered Clouds
2:54 PM 84.9 °F 90.7 °F 72.0 °F 65% 29.84 in 10.0 mi SW 5.8 mph - N/A   Partly Cloudy
3:54 PM 84.9 °F 91.4 °F 73.0 °F 67% 29.84 in 10.0 mi SW 9.2 mph - N/A   Scattered Clouds
4:54 PM 84.9 °F 90.7 °F 72.0 °F 65% 29.83 in 10.0 mi SSW 3.5 mph - N/A   Scattered Clouds
5:54 PM 86.0 °F 93.0 °F 73.0 °F 65% 29.83 in 10.0 mi SSE 5.8 mph - N/A   Partly Cloudy
6:54 PM 84.9 °F 92.1 °F 73.9 °F 69% 29.82 in 10.0 mi ESE 4.6 mph - N/A   Partly Cloudy
7:54 PM 82.0 °F 87.9 °F 73.9 °F 76% 29.81 in 10.0 mi ESE 4.6 mph - N/A   Clear
8:54 PM 77.0 °F - 73.9 °F 90% 29.83 in 10.0 mi SE 4.6 mph - N/A   Partly Cloudy
9:54 PM 78.1 °F - 73.9 °F 87% 29.86 in 10.0 mi SSE 5.8 mph - N/A   Clear
10:54 PM 75.9 °F - 73.9 °F 94% 29.87 in 10.0 mi South 6.9 mph - N/A   Clear
11:54 PM 75.9 °F - 73.9 °F 94% 29.86 in 10.0 mi SE 5.8 mph - N/A   Overcast